Hourly Data Report for October 25, 2015

All times are specified in Local Standard Time (LST). Add 1 hour to adjust for Daylight Saving Time where and when it is observed.

ST LEONARD CS
NEW BRUNSWICK

47°09'28.050" N
67°49'55.014" W
245.00 m
810I001
71019
WIY

Download Data

Hourly Data (October 2015)
Hourly Data Report for October 25, 2015
Temp Definition
°C
Dew Point Temp Definition
°C
Rel Hum Definition
%
Wind Dir Definition
10's deg

Wind Spd Definition
km/h
Visibility Definition
km
Stn Press Definition
kPa
Hmdx Definition


Wind Chill Definition


Weather Definition


TIME
00:00 4.8 1.9 82 18 22   99.02     LegendNANA
01:00 5.1 2.3 82 17 27   98.85     LegendNANA
02:00 5.4 2.8 83 17 25   98.71     LegendNANA
03:00 5.7 3.0 83 17 27   98.62     LegendNANA
04:00 5.9 3.3 84 18 26   98.56     LegendNANA
05:00 6.0 3.8 86 17 26   98.44     LegendNANA
06:00 5.8 4.2 89 18 27   98.35     LegendNANA
07:00 6.5 4.2 85 18 28   98.20     LegendNANA
08:00 6.8 4.4 85 16 30   98.10     LegendNANA
09:00 6.2 5.3 94 18 24   98.10     LegendNANA
10:00 6.8 6.0 95 18 23   98.05     LegendNANA
11:00 7.4 6.7 96 18 25   98.00     LegendNANA
12:00 7.7 7.1 96 19 22   97.95     LegendNANA
13:00 8.2 7.7 96 19 20   97.91     LegendNANA
14:00 8.6 8.0 96 20 22   97.88     LegendNANA
15:00 9.1 8.4 96 20 20   97.89     LegendNANA
16:00 9.4 8.8 96 20 18   97.92     LegendNANA
17:00 9.2 8.3 94 26 10   98.04     LegendNANA
18:00 5.6 4.3 91 30 23   98.26     LegendNANA
19:00 4.0 2.4 89 30 25   98.43     LegendNANA
20:00 2.8 1.6 92 31 14   98.57     LegendNANA
21:00 2.4 1.2 91 31 20   98.68     LegendNANA
22:00 1.9 0.6 92 32 6   98.79     LegendNANA
23:00 1.8 0.3 90 32 13   98.83     LegendNANA

Notes on Data Quality.

Legend

  • E = Estimated
  • M = Missing
  • NA = Not Available
  • ‡ = Partner data that is not subject to review by the National Climate Archives
Date modified: